THOR ABLESTAR DEB, 48819

Orbit data source: Space-Track

THOR ABLESTAR DEB, 48819 is space debris in LEO originally from a launch on Thu, 29 Jun 1961 UTC launched from the Air Force Eastern Test Range (AFETR). Debris objects in space refer to the collection of defunct objects orbiting the Earth. Examples of debris include non-operational satellites, rocket bodies, and fragments generated from explosions, collisions, or faulty payload assembly.

Loading next visibility...
Identifier
48819, 1961-015MX
Orbit
LEO
Country
Flag of USUS
Related business
Manufacturer
Unknown
Mission
Spacecraft
Bus & Motor
Unknown
Mass
Unknown
Launch date (UTC)
1961-06-29 (65 years ago)
Launch vehicle
Unknown
Launch site
Air Force Eastern Test Range (AFETR)
Object type
Payload
Rocket body
Debris
Shape & HBR
Unknown shape, 0.1 m
Radar Cross Section
Small (<0.1 m²)

Expand to show TLE details & history
Last TLE update: 2 days ago

TLE from 2 days ago
0 THOR ABLESTAR DEB
1 48819U 61015MX  26128.92864505  .00000123  00000-0  17073-3 0  9998
2 48819  66.5361 207.7488 0019619 128.7220 231.5612 13.87232667630760
Epoch: 2026-05-08T22:17Z
TLE epoch observation values (Epoch: 2026-05-08T22:17:14.932Z)
Latitude
-0.00006°
Longitude
6.68317°
Altitude
949.339 km
Speed
7.373 km/s
True Right ascension
13h 50m 59s
True Declination
0° 00' 00"
Sunlit
Object was in full shadow at epoch
Visualization orbit readout
Latitude
Unknown
Longitude
Unknown
Altitude
Unknown
Speed
Unknown
Apparent Right ascension
Unknown
Apparent Declination
Unknown
Sunlit
N/A
Visualization observer readout
Local Sidereal Time
06:58:42
Azimuth
Unknown
Elevation
Unknown
Doppler factor
Unknown
Orbital elements
Apogee altitude
951.123 km
Perigee altitude
922.42 km
Semi-major axis
7,314.908 km
Eccentricity
0.00196
Inclination
66.5361°
RAAN
207.7488°
Arg. of periapsis
128.722°
True anomaly
231.38538°
Mean anomaly
231.5612°
Eccentric anomaly
231.47326°
Mean motion
3.4692 °/min
Orbital period
103.77 mins
BSTAR
0.00017073

Documentation

Showing up to 5 results
|